Regional Weather Roundup
Issued by NWS

Home | Current Version | Previous Version | Graphics & Text | Print | Product List | Glossary On
Versions: 1 2 3 4 5 6 7 8 9 10 11 12 13 14 15 16 17 18 19 20 21 22 23 24 25 26 27 28 29 30 31 32 33 34 35 36 37 38 39 40 41 42 43 44 45 46 47 48 49 50
000
ASUS43 KMKX 091021
RWRWI

WISCONSIN REGIONAL WEATHER ROUNDUP
NATIONAL WEATHER SERVICE MILWAUKEE/SULLIVAN WI
400 AM CST FRI DEC 09 2016

NOTE: "FAIR" INDICATES FEW OR NO CLOUDS BELOW 12,000 FEET WITH NO
SIGNIFICANT WEATHER AND/OR OBSTRUCTIONS TO VISIBILITY.

WIZ001-002-006>008-014>016-023>028-091100-
NORTHWEST WISCONSIN

CITY           SKY/WX    TMP DP  RH WIND       PRES   REMARKS
SUPERIOR ARPT  CLOUDY    15   8  71 W5        30.51S WCI   8
ASHLAND        LGT SNOW  16  13  88 W5        30.47R FOG     WCI   9
HAYWARD        MOCLDY    11   5  77 VRB3      30.45S
SIREN          MOCLDY     9   6  89 CALM      30.50S
CUMBERLAND     PTCLDY    10   7  85 NW5       30.47S WCI   2
RICE LAKE      CLEAR     11   8  87 CALM      30.50R
CHETEK         CLEAR     12   8  86 CALM      30.49S
LADYSMITH      CLEAR     13   8  83 NW7       30.46R WCI   2
EAU CLAIRE     CLEAR     13   9  84 NW8       30.49S WCI   2
MENOMONIE      CLEAR     16  11  80 W8        30.51S WCI   5
NEW RICHMOND   CLEAR     11   8  87 W5        30.51S WCI   3
OSCEOLA        MOCLDY    13  10  89 W7        30.55S WCI   2
$$

WIZ003>005-009-010-017-018-091100-
NORTH CENTRAL WISCONSIN

CITY           SKY/WX    TMP DP  RH WIND       PRES   REMARKS
MANITOWISH WTR CLOUDY    13  10  88 W7        30.35S WCI   3
ARBOR VITAE    MOCLDY    17  12  80 NW8G16    30.35S WCI   6
WOODRUFF       MOCLDY    17  12  80 NW8G16    30.35S WCI   6
RHINELANDER    CLOUDY    17  11  77 NW8       30.35R WCI   7
EAGLE RIVER    FLURRIES  16  10  77 NW6       30.34R WCI   7
LAND O LAKES   CLEAR     14  11  86 W5        30.34R WCI   7
PHILLIPS       CLOUDY    14   9  83 NW5       30.39R WCI   6
TOMAHAWK       CLOUDY    14   8  76 NW7       30.39R WCI   4
MEDFORD        FLURRIES  16  11  82 W13       30.39R WCI   2
MERRILL        CLOUDY    17   9  72 NW8       30.39S WCI   6
$$

WIZ029-030-035-036-043>047-091100-
CENTRAL WISCONSIN

CITY           SKY/WX    TMP DP  RH WIND       PRES   REMARKS
WAUSAU         PTCLDY    18  11  74 NW9       30.39R WCI   7
MOSINEE        CLOUDY    19  14  79 NW9       30.40R WCI   9
MARSHFIELD     MOCLDY    15   9  76 NW10      30.41R WCI   2
STEVENS POINT  CLOUDY    18  11  75 W8        30.42R WCI   8
WAUPACA        CLOUDY    23  15  71 W8        30.42R WCI  13
WAUTOMA        CLEAR     18  12  77 W9        30.44  WCI   7
WISC RAPIDS    PTCLDY    16  12  84 W8        30.44R WCI   5
CAMP DOUGLAS   CLOUDY    20  12  70 W15       30.45S WCI   7
$$

WIZ011>013-019>022-031-037>040-048>050-091100-
NORTHEAST WISCONSIN

CITY           SKY/WX    TMP DP  RH WIND       PRES   REMARKS
ANTIGO         CLOUDY    17  11  80 NW10G16   30.35S WCI   4
SHAWANO        CLOUDY    21  15  78 W5        30.39S WCI  15
OCONTO         PTCLDY    20  10  67 NW5       30.38R WCI  13
STURGEON BAY   CLEAR     22  13  68 NW13      30.36R WCI  10
GREEN BAY      CLEAR     21  15  78 W10       30.39R WCI  10
MANITOWOC      CLEAR     21  15  78 W10       30.39R WCI  10
APPLETON       CLEAR     18  12  79 W8        30.38S WCI   7
CLINTONVILLE   PTCLDY    18  12  79 NW5       30.40R WCI  11
OSHKOSH        CLEAR     19  12  74 W6        30.40S WCI  11
$$

WIZ032>034-041-042-053>061-091100-
SOUTHWEST WISCONSIN

CITY           SKY/WX    TMP DP  RH WIND       PRES   REMARKS
LA CROSSE      CLOUDY    23  12  62 N13       30.51S WCI  11
SPARTA         CLOUDY    20  13  74 NW9G20    30.49R WCI  10
VIROQUA        CLOUDY    19  16  91 W8        30.46R WCI   8
BOSCOBEL       CLOUDY    22  15  75 W6        30.52R WCI  14
PRAIRIE DU CHI MOCLDY    19  12  73 NW7       30.54R WCI  10
PLATTEVILLE    CLOUDY    19  17  90 W9        30.49R WCI   8
$$

WIZ056-057-062-063-064-067-068-091100-
SOUTH CENTRAL WISCONSIN

CITY           SKY/WX    TMP DP  RH WIND       PRES   REMARKS
REEDSBURG      FLURRIES  21  15  75 NW7       30.46R WCI  13
BARABOO/DELLS  PTCLDY    20  13  73 NW9       30.44S WCI  10
LONE ROCK      FLURRIES  22  15  75 W12       30.49R WCI  10
MINERAL POINT  FLURRIES  21  19  93 W9        30.45S WCI  11
MADISON        PTCLDY    20  15  81 W5        30.45R WCI  13
MIDDLETON      CLOUDY    24  17  77 NW9       30.45S WCI  14
WATERTOWN      CLOUDY    20  17  86 W6        30.43R WCI  13
MONROE         FLURRIES  21  18  86 W12       30.45R WCI   9
JANESVILLE     CLOUDY    23  19  86 W10       30.45R WCI  12
$$

WIZ051-052-058>065-066-070>072-091100-
SOUTHEAST WISCONSIN

CITY           SKY/WX    TMP DP  RH WIND       PRES   REMARKS
MILWAUKEE      CLEAR     23  15  71 NW10      30.42R WCI  12
WAUKESHA       CLEAR     19  16  86 W10       30.43R WCI   8
MILWAUKEE/TIMM CLEAR     19  14  79 W7        30.43R WCI  10
RACINE         CLEAR     21  15  78 NW8       30.44R WCI  11
BURLINGTON     CLOUDY    26  22  87 W9        30.43R WCI  16
KENOSHA        CLEAR     21  16  81 W9        30.43R WCI  11
FOND DU LAC    CLEAR     20  11  68 NW12      30.41S WCI   8
SHEBOYGAN      CLEAR     21  14  74 NW8       30.39S WCI  11
WEST BEND      CLEAR     19  16  86 NW8       30.40S WCI   9
JUNEAU         CLEAR     20  15  81 W6        30.43R WCI  12
$$

LSZ147-162-091100-
LAKE SUPERIOR

STATION/POSITION TIME  TEMP    WIND        PRES    WAVE
                       AIR SEA DIR/SP/G            HT/PER
                 (UTC) (F)     (DEG/KT/KT) (MB)    (FT/S)
DEVILS ISLAND    1000   19     300/ 18/ 22 1032.3R
PORT WING        0940   19     310/ 12/ 16 1032.2R
SAXON HARBOR     1000   20     280/  9/ 22 1030.8
$$

LMZ867-665-643>646-091100-
LAKE MICHIGAN

STATION/POSITION TIME  TEMP    WIND        PRES    WAVE
                       AIR SEA DIR/SP/G            HT/PER
                 (UTC) (F)     (DEG/KT/KT) (MB)    (FT/S)
CHAMBERS ISLAND  0940   23     290/  9/ 16 1027.1R
NORTHPORT PIER   0944   25     290/ 16     1027.1R
SISTER BAY       0950   24     320/ 25/ 28   N/A
ALGOMA LAKESHORE 0921          320/ 10/ 13   N/A
KEWAUNEE LAKESHO 0954   20     300/  4/  6 1027.8R
SHEBOYGAN LAKESH 1000   22     290/ 11/ 15 1030.1R
PORT WASHINGTON  0940   23     300/  8/ 14 1030.5S
MILWAUKEE LAKESH 1000   22     290/ 10/ 13   N/A
KENOSHA   LAKESH 1000   22     290/ 10/ 16 1030.1
$$

TC  - TEMPERATURE IN CELSIUS
VSB - VISIBILITY IN STATUTE MILES
WCI - WIND CHILL INDEX
HX  - HEAT INDEX





USA.gov is the U.S. government's official web portal to all federal, state and local government web resources and services.